Regional Weather Roundup
Issued by NWS

Home | Current Version | Previous Version | Text Only | Print | Product List | Glossary Off
Versions: 1 2 3 4 5 6 7 8 9 10 11 12 13 14 15 16 17 18 19 20 21 22 23 24 25 26 27 28 29 30 31 32 33 34 35 36 37 38 39 40 41 42 43 44 45 46 47 48 49 50

283
ASUS43 KIND 280500
RWRIN

WEATHER ROUNDUP FOR INDIANA
NATIONAL WEATHER SERVICE INDIANAPOLIS IN
100 AM EDT FRI JUL 28 2017

NOTE: "FAIR" INDICATES FEW OR NO CLOUDS BELOW 12,000 FEET WITH NO
SIGNIFICANT WEATHER AND/OR OBSTRUCTIONS TO VISIBILITY.

* - STATION DOES NOT REPORT WEATHER SUCH AS PRECIPITATION OR FOG.

+ - STATION NOT QUALITY CONTROLLED BY THE NATIONAL WEATHER SERVICE.
    USE DATA WITH CAUTION...ESPECIALLY DEWPOINT AND RELATIVE
    HUMIDITY OBSERVATIONS.

INZ001>003-010>013-019-020-280600-
NORTHWEST INDIANA

CITY           SKY/WX    TMP DP  RH WIND       PRES   REMARKS
MICHIGAN CITY+ CLOUDY    68  68 100 CALM      29.93R
MONTICELLO +   PTCLDY    70  67  92 N5        29.89R
RENSSELAER +   CLEAR     68  64  88 N7        29.90S

$$

LMZ046-743>745-280600-
SOUTHERN LAKE MICHIGAN

STATION/POSITION TIME  TEMP    WIND        PRES    WAVE
                       AIR SEA DIR/SP/G            HT
                 (UTC) (F)     (DEG/KT/KT) (MB)    (FT)
BURNS HARBOR     0440   74      40/ 11/ 13 1013.5S
MICHIGAN CITY    0430   72      40/ 10/ 12   N/A
5NW MICH CITY    0450   74 74   40/ 10/ 14   N/A     5

$$

INZ004-005-014>016-021>024-280600-
NORTH CENTRAL INDIANA

CITY           SKY/WX    TMP DP  RH WIND       PRES   REMARKS
GOSHEN         PTCLDY    73  66  78 NE8       29.91R
PERU/GRISSOM   CLEAR     73  73 100 N6        29.87S
SOUTH BEND     CLOUDY    74  67  78 NE7       29.92R
WARSAW +       CLOUDY    72  70  94 E5        29.90R

$$

INZ006>009-017-018-025>027-280600-
NORTHEAST INDIANA

CITY           SKY/WX    TMP DP  RH WIND       PRES   REMARKS
AUBURN +       CLEAR     70  64  83 NE3       29.91S
FORT WAYNE     PTCLDY    73  70  90 NE7       29.89R
KENDALLVILLE + PTCLDY    71  67  88 NE5       29.92R

$$

INZ028-029-035-036-043>045-051>053-280600-
WEST CENTRAL INDIANA

CITY           SKY/WX    TMP DP  RH WIND       PRES   REMARKS
LAFAYETTE      PTCLDY    70  67  90 N7        29.88R
TERRE HAUTE    MOCLDY    75  72  90 N6        29.87S

$$

INZ030>032-037>040-046>048-054>057-064-065-280600-
CENTRAL INDIANA

CITY           SKY/WX    TMP DP  RH WIND       PRES   REMARKS
FRANKFORT +    CLOUDY    73  71  92 N7        29.90S
GREENWOOD *+   PTCLDY   N/A N/A N/A CALM      29.87R
INDIANAPOLIS   MOCLDY    74  73  97 NW3       29.86R FOG
-EAGLE CREEK   CLOUDY    75  72  90 NW5       29.86S
KOKOMO +       MOCLDY    73  71  93 N5        29.89R
MT COMFORT *+  PTCLDY    70  70 100 CALM      29.87S
SHELBYVILLE    CLOUDY    74  71  91 CALM      29.86R

$$

INZ033-034-041-042-049-050-058-059-280600-
EAST CENTRAL INDIANA

CITY           SKY/WX    TMP DP  RH WIND       PRES   REMARKS
MUNCIE         PTCLDY    73  70  90 CALM      29.88S
RICHMOND +     CLOUDY    70  70 100 CALM      29.89S FOG

$$

INZ060-061-067>069-081>083-085>088-280600-
SOUTHWEST INDIANA

CITY           SKY/WX    TMP DP  RH WIND       PRES   REMARKS
EVANSVILLE     HVY RAIN  75  74  96 NE3       29.86S FOG
HUNTINGBURG *+ HVY RAIN  74  73  97 SE6       29.87S FOG

$$

INZ062-063-066-070>080-084-089>092-280600-
SOUTH CENTRAL AND SOUTHEAST INDIANA

CITY           SKY/WX    TMP DP  RH WIND       PRES   REMARKS
BLOOMINGTON    MOCLDY    74  71  91 CALM      29.86F FOG
MADISON *+     CLOUDY    73  72  94 S5        29.89R
SEYMOUR +      CLOUDY    75  73  94 S5        29.86S

$$





USA.gov is the U.S. government's official web portal to all federal, state and local government web resources and services.